Year,Month,Day,Hour,Minute,Value (Times are PST for temperature in C)
2014,06,11,01,18,11.60
2014,06,11,01,19,11.60
2014,06,11,01,20,11.60
2014,06,11,01,21,11.60
2014,06,11,01,22,11.60
2014,06,11,01,23,11.60
2014,06,11,01,24,11.60
2014,06,11,01,25,11.60
2014,06,11,01,26,11.60
2014,06,11,01,27,11.60
2014,06,11,01,28,11.60
2014,06,11,01,29,11.60
2014,06,11,01,30,11.60
2014,06,11,01,31,11.60
2014,06,11,01,32,11.60
2014,06,11,01,33,11.60
2014,06,11,01,34,11.60
2014,06,11,01,35,11.60
2014,06,11,01,36,11.60
2014,06,11,01,37,11.60
2014,06,11,01,38,11.60
2014,06,11,01,39,11.60
2014,06,11,01,40,11.60
2014,06,11,01,41,11.60
2014,06,11,01,42,11.60
2014,06,11,01,43,11.60
2014,06,11,01,44,11.60
2014,06,11,01,45,11.60
2014,06,11,01,46,11.60
2014,06,11,01,47,11.60
2014,06,11,01,48,11.60
2014,06,11,01,49,11.60
2014,06,11,01,50,11.60
2014,06,11,01,51,11.60
2014,06,11,01,52,11.60
2014,06,11,01,53,11.60
2014,06,11,01,54,11.60
2014,06,11,01,55,11.60
2014,06,11,01,56,11.60
2014,06,11,01,57,11.60
2014,06,11,01,58,11.60
2014,06,11,01,59,11.60
2014,06,11,02,00,11.60
2014,06,11,02,01,11.60
2014,06,11,02,02,11.60
2014,06,11,02,03,11.60
2014,06,11,02,04,11.60
2014,06,11,02,05,11.60
2014,06,11,02,06,11.60
2014,06,11,02,07,11.60
2014,06,11,02,08,11.60
2014,06,11,02,09,11.60
2014,06,11,02,10,11.60
2014,06,11,02,11,11.60
2014,06,11,02,12,11.60
2014,06,11,02,13,11.60
2014,06,11,02,14,11.60
2014,06,11,02,15,11.60
2014,06,11,02,16,11.60
2014,06,11,02,17,11.60
2014,06,11,02,18,11.40
2014,06,11,02,19,11.40
2014,06,11,02,20,11.40
2014,06,11,02,21,11.40
2014,06,11,02,22,11.40
2014,06,11,02,23,11.40
2014,06,11,02,24,11.40
2014,06,11,02,25,11.40
2014,06,11,02,26,11.40
2014,06,11,02,27,11.40
2014,06,11,02,28,11.40
2014,06,11,02,29,11.40
2014,06,11,02,30,11.40
2014,06,11,02,31,11.40
2014,06,11,02,32,11.40
2014,06,11,02,33,11.40
2014,06,11,02,34,11.40
2014,06,11,02,35,11.40
2014,06,11,02,36,11.40
2014,06,11,02,37,11.40
2014,06,11,02,38,11.40
2014,06,11,02,39,11.40
2014,06,11,02,40,11.40
2014,06,11,02,41,11.40
2014,06,11,02,42,11.40
2014,06,11,02,43,11.40
2014,06,11,02,44,11.40
2014,06,11,02,45,11.40
2014,06,11,02,46,11.40
2014,06,11,02,47,11.40
2014,06,11,02,48,11.40
2014,06,11,02,49,11.40
2014,06,11,02,50,11.40
2014,06,11,02,51,11.40
2014,06,11,02,52,11.40
2014,06,11,02,53,11.40
2014,06,11,02,54,11.40
2014,06,11,02,55,11.40
2014,06,11,02,56,11.40
2014,06,11,02,57,11.40
2014,06,11,02,58,11.40
2014,06,11,02,59,11.40
2014,06,11,03,00,11.40
2014,06,11,03,01,11.40
2014,06,11,03,02,11.40
2014,06,11,03,03,11.40
2014,06,11,03,04,11.40
2014,06,11,03,05,11.40
2014,06,11,03,06,11.40
2014,06,11,03,07,11.40
2014,06,11,03,08,11.40
2014,06,11,03,09,11.40
2014,06,11,03,10,11.40
2014,06,11,03,11,11.40
2014,06,11,03,12,11.40
2014,06,11,03,13,11.40
2014,06,11,03,14,11.40
2014,06,11,03,15,11.40
2014,06,11,03,16,11.40
2014,06,11,03,17,11.40
2014,06,11,03,18,11.40
2014,06,11,03,19,11.10
2014,06,11,03,20,11.10
2014,06,11,03,21,11.10
2014,06,11,03,22,11.10
2014,06,11,03,23,11.10
2014,06,11,03,24,11.10
2014,06,11,03,25,11.10
2014,06,11,03,26,11.10
2014,06,11,03,27,11.10
2014,06,11,03,28,11.10
2014,06,11,03,29,11.10
2014,06,11,03,30,11.10
2014,06,11,03,31,11.10
2014,06,11,03,32,11.10
2014,06,11,03,33,11.10
2014,06,11,03,34,11.10
2014,06,11,03,35,11.10
2014,06,11,03,36,11.10
2014,06,11,03,37,11.10
2014,06,11,03,38,11.10
2014,06,11,03,39,11.10
2014,06,11,03,40,11.10
2014,06,11,03,41,11.10
2014,06,11,03,42,11.10
2014,06,11,03,43,11.10
2014,06,11,03,44,11.10
2014,06,11,03,45,11.10
2014,06,11,03,46,11.10
2014,06,11,03,47,11.10
2014,06,11,03,48,11.10
2014,06,11,03,49,11.10
2014,06,11,03,50,11.10
2014,06,11,03,51,11.10
2014,06,11,03,52,11.10
2014,06,11,03,53,11.10
2014,06,11,03,54,11.10
2014,06,11,03,55,11.10
2014,06,11,03,56,11.10
2014,06,11,03,57,11.10
2014,06,11,03,58,11.10
2014,06,11,03,59,11.10
2014,06,11,04,00,11.10
2014,06,11,04,01,11.10
2014,06,11,04,02,11.10
2014,06,11,04,03,11.10
2014,06,11,04,04,11.10
2014,06,11,04,05,11.10
2014,06,11,04,06,11.10
2014,06,11,04,07,11.10
2014,06,11,04,08,11.10
2014,06,11,04,09,11.10
2014,06,11,04,10,11.10
2014,06,11,04,11,11.10
2014,06,11,04,12,11.10
2014,06,11,04,13,11.10
2014,06,11,04,14,11.10
2014,06,11,04,15,11.10
2014,06,11,04,16,11.10
2014,06,11,04,17,11.10
2014,06,11,04,18,11.10
2014,06,11,04,19,11.10
2014,06,11,04,20,11.10
2014,06,11,04,21,11.10
2014,06,11,04,22,11.10
2014,06,11,04,23,11.10
2014,06,11,04,24,11.10
2014,06,11,04,25,11.10
2014,06,11,04,26,11.10
2014,06,11,04,27,11.10
2014,06,11,04,28,11.10
2014,06,11,04,29,11.10
2014,06,11,04,30,11.10
2014,06,11,04,31,11.10
2014,06,11,04,32,11.10
2014,06,11,04,33,11.10
2014,06,11,04,34,11.10
2014,06,11,04,35,11.10
2014,06,11,04,36,11.10
2014,06,11,04,37,11.10
2014,06,11,04,38,11.10
2014,06,11,04,39,11.10
2014,06,11,04,40,11.10
2014,06,11,04,41,11.10
2014,06,11,04,42,11.10
2014,06,11,04,43,11.10
2014,06,11,04,44,11.10
2014,06,11,04,45,11.10
2014,06,11,04,46,11.10
2014,06,11,04,47,11.10
2014,06,11,04,48,11.10
2014,06,11,04,49,11.10
2014,06,11,04,50,11.10
2014,06,11,04,51,11.10
2014,06,11,04,52,11.10
2014,06,11,04,53,11.10
2014,06,11,04,54,11.10
2014,06,11,04,55,11.10
2014,06,11,04,56,11.10
2014,06,11,04,57,11.10
2014,06,11,04,58,11.10
2014,06,11,04,59,11.10
2014,06,11,05,00,11.10
2014,06,11,05,01,11.10
2014,06,11,05,02,11.10
2014,06,11,05,03,11.10
2014,06,11,05,04,11.10
2014,06,11,05,05,11.10
2014,06,11,05,06,11.10
2014,06,11,05,07,11.10
2014,06,11,05,08,11.10
2014,06,11,05,09,11.10
2014,06,11,05,10,11.10
2014,06,11,05,11,11.10
2014,06,11,05,12,11.10
2014,06,11,05,13,11.10
2014,06,11,05,14,11.10
2014,06,11,05,15,11.10
2014,06,11,05,16,11.10
2014,06,11,05,17,11.10
2014,06,11,05,18,11.10
2014,06,11,05,19,11.10
2014,06,11,05,20,10.70
2014,06,11,05,21,10.70
2014,06,11,05,22,10.70
2014,06,11,05,23,10.70
2014,06,11,05,24,10.70
2014,06,11,05,25,10.70
2014,06,11,05,26,10.70
2014,06,11,05,27,10.70
2014,06,11,05,28,10.70
2014,06,11,05,29,10.70
2014,06,11,05,30,10.70
2014,06,11,05,31,10.70
2014,06,11,05,32,10.70
2014,06,11,05,33,10.70
2014,06,11,05,34,10.70
2014,06,11,05,35,10.70
2014,06,11,05,36,10.70
2014,06,11,05,37,10.70
2014,06,11,05,38,10.70
2014,06,11,05,39,10.70
2014,06,11,05,40,10.70
2014,06,11,05,41,10.70
2014,06,11,05,42,10.70
2014,06,11,05,43,10.70
2014,06,11,05,44,10.70
2014,06,11,05,45,10.70
2014,06,11,05,46,10.70
2014,06,11,05,47,10.70
2014,06,11,05,48,10.70
2014,06,11,05,49,10.70
2014,06,11,05,50,10.70
2014,06,11,05,51,10.70
2014,06,11,05,52,10.70
2014,06,11,05,53,10.70
2014,06,11,05,54,10.70
2014,06,11,05,55,10.70
2014,06,11,05,56,10.70
2014,06,11,05,57,10.70
2014,06,11,05,58,10.70
2014,06,11,05,59,10.70
2014,06,11,06,00,10.70
2014,06,11,06,01,10.70
2014,06,11,06,02,10.70
2014,06,11,06,03,10.70
2014,06,11,06,04,10.70
2014,06,11,06,05,10.70
2014,06,11,06,06,10.70
2014,06,11,06,07,10.70
2014,06,11,06,08,10.70
2014,06,11,06,09,10.70
2014,06,11,06,10,10.70
2014,06,11,06,11,10.70
2014,06,11,06,12,10.70
2014,06,11,06,13,10.70
2014,06,11,06,14,10.70
2014,06,11,06,15,10.70
2014,06,11,06,16,10.70
2014,06,11,06,17,10.70
2014,06,11,06,18,10.70
2014,06,11,06,19,10.70
2014,06,11,06,20,10.70
2014,06,11,06,21,10.40
2014,06,11,06,22,10.40
2014,06,11,06,23,10.40
2014,06,11,06,24,10.40
2014,06,11,06,25,10.40
2014,06,11,06,26,10.40
2014,06,11,06,27,10.40
2014,06,11,06,28,10.40
2014,06,11,06,29,10.40
2014,06,11,06,30,10.40
2014,06,11,06,31,10.40
2014,06,11,06,32,10.40
2014,06,11,06,33,10.40
2014,06,11,06,34,10.40
2014,06,11,06,35,10.40
2014,06,11,06,36,10.40
2014,06,11,06,37,10.40
2014,06,11,06,38,10.40
2014,06,11,06,39,10.40
2014,06,11,06,40,10.40
2014,06,11,06,41,10.40
2014,06,11,06,42,10.40
2014,06,11,06,43,10.40
2014,06,11,06,44,10.40
2014,06,11,06,45,10.40
2014,06,11,06,46,10.40
2014,06,11,06,47,10.40
2014,06,11,06,48,10.40
2014,06,11,06,49,10.40
2014,06,11,06,50,10.40
2014,06,11,06,51,10.40
2014,06,11,06,52,10.40
2014,06,11,06,53,10.40
2014,06,11,06,54,10.40
2014,06,11,06,55,10.40
2014,06,11,06,56,10.40
2014,06,11,06,57,10.40
2014,06,11,06,58,10.40
2014,06,11,06,59,10.40
2014,06,11,07,00,10.40
2014,06,11,07,01,10.40
2014,06,11,07,02,10.40
2014,06,11,07,03,10.40
2014,06,11,07,04,10.40
2014,06,11,07,05,10.40
2014,06,11,07,06,10.40
2014,06,11,07,07,10.40
2014,06,11,07,08,10.40
2014,06,11,07,09,10.40
2014,06,11,07,10,10.40
2014,06,11,07,11,10.40
2014,06,11,07,12,10.40
2014,06,11,07,13,10.40
2014,06,11,07,14,10.40
2014,06,11,07,15,10.40
2014,06,11,07,16,10.40
2014,06,11,07,17,10.40
2014,06,11,07,18,10.40
2014,06,11,07,19,10.40
2014,06,11,07,20,10.40
2014,06,11,07,21,10.40
2014,06,11,07,22,10.00
2014,06,11,07,23,10.00
2014,06,11,07,24,10.00
2014,06,11,07,25,10.00
2014,06,11,07,26,10.00
2014,06,11,07,27,10.00
2014,06,11,07,28,10.00
2014,06,11,07,29,10.00
2014,06,11,07,30,10.00
2014,06,11,07,31,10.00
2014,06,11,07,32,10.00
2014,06,11,07,33,10.00
2014,06,11,07,34,10.00
2014,06,11,07,35,10.00
2014,06,11,07,36,10.00
2014,06,11,07,37,10.00
2014,06,11,07,38,10.00
2014,06,11,07,39,10.00
2014,06,11,07,40,10.00
2014,06,11,07,41,10.00
2014,06,11,07,42,10.00
2014,06,11,07,43,10.00
2014,06,11,07,44,10.00
2014,06,11,07,45,10.00
2014,06,11,07,46,10.00
2014,06,11,07,47,10.00
2014,06,11,07,48,10.00
2014,06,11,07,49,10.00
2014,06,11,07,50,10.00
2014,06,11,07,51,10.00
2014,06,11,07,52,10.00
2014,06,11,07,53,10.00
2014,06,11,07,54,10.00
2014,06,11,07,55,10.00
2014,06,11,07,56,10.00
2014,06,11,07,57,10.00
2014,06,11,07,58,10.00
2014,06,11,07,59,10.00
2014,06,11,08,00,10.00
2014,06,11,08,01,10.00
2014,06,11,08,02,10.00
2014,06,11,08,03,10.00
2014,06,11,08,04,10.00
2014,06,11,08,05,10.00
2014,06,11,08,06,10.00
2014,06,11,08,07,10.00
2014,06,11,08,08,10.00
2014,06,11,08,09,10.00
2014,06,11,08,10,10.00
2014,06,11,08,11,10.00
2014,06,11,08,12,10.00
2014,06,11,08,13,10.00
2014,06,11,08,14,10.00
2014,06,11,08,15,10.00
2014,06,11,08,16,10.00
2014,06,11,08,17,10.00
2014,06,11,08,18,10.00
2014,06,11,08,19,10.00
2014,06,11,08,20,10.00
2014,06,11,08,21,10.00
2014,06,11,08,22,9.90
2014,06,11,08,23,9.90
2014,06,11,08,24,9.90
2014,06,11,08,25,9.90
2014,06,11,08,26,9.90
2014,06,11,08,27,9.90
2014,06,11,08,28,9.90
2014,06,11,08,29,9.90
2014,06,11,08,30,9.90
2014,06,11,08,31,9.90
2014,06,11,08,32,9.90
2014,06,11,08,33,9.90
2014,06,11,08,34,9.90
2014,06,11,08,35,9.90
2014,06,11,08,36,9.90
2014,06,11,08,37,9.90
2014,06,11,08,38,9.90
2014,06,11,08,39,9.90
2014,06,11,08,40,9.90
2014,06,11,08,41,9.90
2014,06,11,08,42,9.90
2014,06,11,08,43,9.90
2014,06,11,08,44,9.90
2014,06,11,08,45,9.90
2014,06,11,08,46,9.90
2014,06,11,08,47,9.90
2014,06,11,08,48,9.90
2014,06,11,08,49,9.90
2014,06,11,08,50,9.90
2014,06,11,08,51,9.90
2014,06,11,08,52,9.90
2014,06,11,08,53,9.90
2014,06,11,08,54,9.90
2014,06,11,08,55,9.90
2014,06,11,08,56,9.90
2014,06,11,08,57,9.90
2014,06,11,08,58,9.90
2014,06,11,08,59,9.90
2014,06,11,09,00,9.90
2014,06,11,09,01,9.90
2014,06,11,09,02,9.90
2014,06,11,09,03,9.90
2014,06,11,09,04,9.90
2014,06,11,09,05,9.90
2014,06,11,09,06,9.90
2014,06,11,09,07,9.90
2014,06,11,09,08,9.90
2014,06,11,09,09,9.90
2014,06,11,09,10,9.90
2014,06,11,09,11,9.90
2014,06,11,09,12,9.90
2014,06,11,09,13,9.90
2014,06,11,09,14,9.90
2014,06,11,09,15,9.90
2014,06,11,09,16,9.90
2014,06,11,09,17,9.90
2014,06,11,09,18,9.90
2014,06,11,09,19,9.90
2014,06,11,09,20,9.90
2014,06,11,09,21,9.90
2014,06,11,09,22,10.50
2014,06,11,09,23,10.50
2014,06,11,09,24,10.50
2014,06,11,09,25,10.50
2014,06,11,09,26,10.50
2014,06,11,09,27,10.50
2014,06,11,09,28,10.50
2014,06,11,09,29,10.50
2014,06,11,09,30,10.50
2014,06,11,09,31,10.50
2014,06,11,09,32,10.50
2014,06,11,09,33,10.50
2014,06,11,09,34,10.50
2014,06,11,09,35,10.50
2014,06,11,09,36,10.50
2014,06,11,09,37,10.50
2014,06,11,09,38,10.50
2014,06,11,09,39,10.50
2014,06,11,09,40,10.50
2014,06,11,09,41,10.50
2014,06,11,09,42,10.50
2014,06,11,09,43,10.50
2014,06,11,09,44,10.50
2014,06,11,09,45,10.50
2014,06,11,09,46,10.50
2014,06,11,09,47,10.50
2014,06,11,09,48,10.50
2014,06,11,09,49,10.50
2014,06,11,09,50,10.50
2014,06,11,09,51,10.50
2014,06,11,09,52,10.50
2014,06,11,09,53,10.50
2014,06,11,09,54,10.50
2014,06,11,09,55,10.50
2014,06,11,09,56,10.50
2014,06,11,09,57,10.50
2014,06,11,09,58,10.50
2014,06,11,09,59,10.50
2014,06,11,10,00,10.50
2014,06,11,10,01,10.50
2014,06,11,10,02,10.50
2014,06,11,10,03,10.50
2014,06,11,10,04,10.50
2014,06,11,10,05,10.50
2014,06,11,10,06,10.50
2014,06,11,10,07,10.50
2014,06,11,10,08,10.50
2014,06,11,10,09,10.50
2014,06,11,10,10,10.50
2014,06,11,10,11,10.50
2014,06,11,10,12,10.50
2014,06,11,10,13,10.50
2014,06,11,10,14,10.50
2014,06,11,10,15,10.50
2014,06,11,10,16,10.50
2014,06,11,10,17,10.50
2014,06,11,10,18,10.50
2014,06,11,10,19,10.50
2014,06,11,10,20,10.50
2014,06,11,10,21,10.50
2014,06,11,10,22,10.50
2014,06,11,10,23,12.10
2014,06,11,10,24,12.10
2014,06,11,10,25,12.10
2014,06,11,10,26,12.10
2014,06,11,10,27,12.10
2014,06,11,10,28,12.10
2014,06,11,10,29,12.10
2014,06,11,10,30,12.10
2014,06,11,10,31,12.10
2014,06,11,10,32,12.10
2014,06,11,10,33,12.10
2014,06,11,10,34,12.10
2014,06,11,10,35,12.10
2014,06,11,10,36,12.10
2014,06,11,10,37,12.10
2014,06,11,10,38,12.10
2014,06,11,10,39,12.10
2014,06,11,10,40,12.10
2014,06,11,10,41,12.10
2014,06,11,10,42,12.10
2014,06,11,10,43,12.10
2014,06,11,10,44,12.10
2014,06,11,10,45,12.10
2014,06,11,10,46,12.10
2014,06,11,10,47,12.10
2014,06,11,10,48,12.10
2014,06,11,10,49,12.10
2014,06,11,10,50,12.10
2014,06,11,10,51,12.10
2014,06,11,10,52,12.10
2014,06,11,10,53,12.10
2014,06,11,10,54,12.10
2014,06,11,10,55,12.10
2014,06,11,10,56,12.10
2014,06,11,10,57,12.10
2014,06,11,10,58,12.10
2014,06,11,10,59,12.10
2014,06,11,11,00,12.10
2014,06,11,11,01,12.10
2014,06,11,11,02,12.10
2014,06,11,11,03,12.10
2014,06,11,11,04,12.10
2014,06,11,11,05,12.10
2014,06,11,11,06,12.10
2014,06,11,11,07,12.10
2014,06,11,11,08,12.10
2014,06,11,11,09,12.10
2014,06,11,11,10,12.10
2014,06,11,11,11,12.10
2014,06,11,11,12,12.10
2014,06,11,11,13,12.10
2014,06,11,11,14,12.10
2014,06,11,11,15,12.10
2014,06,11,11,16,12.10
2014,06,11,11,17,12.10
2014,06,11,11,18,12.10
2014,06,11,11,19,12.10
2014,06,11,11,20,12.10
2014,06,11,11,21,12.10
2014,06,11,11,22,12.10
2014,06,11,11,23,12.70
2014,06,11,11,24,12.70
2014,06,11,11,25,12.70
2014,06,11,11,26,12.70
2014,06,11,11,27,12.70
2014,06,11,11,28,12.70
2014,06,11,11,29,12.70
2014,06,11,11,30,12.70
2014,06,11,11,31,12.70
2014,06,11,11,32,12.70
2014,06,11,11,33,12.70
2014,06,11,11,34,12.70
2014,06,11,11,35,12.70
2014,06,11,11,36,12.70
2014,06,11,11,37,12.70
2014,06,11,11,38,12.70
2014,06,11,11,39,12.70
2014,06,11,11,40,12.70
2014,06,11,11,41,12.70
2014,06,11,11,42,12.70
2014,06,11,11,43,12.70
2014,06,11,11,44,12.70
2014,06,11,11,45,12.70
2014,06,11,11,46,12.70
2014,06,11,11,47,12.70
2014,06,11,11,48,12.70
2014,06,11,11,49,12.70
2014,06,11,11,50,12.70
2014,06,11,11,51,12.70
2014,06,11,11,52,12.70
2014,06,11,11,53,12.70
2014,06,11,11,54,12.70
2014,06,11,11,55,12.70
2014,06,11,11,56,12.70
2014,06,11,11,57,12.70
2014,06,11,11,58,12.70
2014,06,11,11,59,12.70
2014,06,11,12,00,12.70
2014,06,11,12,01,12.70
2014,06,11,12,02,12.70
2014,06,11,12,03,12.70
2014,06,11,12,04,12.70
2014,06,11,12,05,12.70
2014,06,11,12,06,12.70
2014,06,11,12,07,12.70
2014,06,11,12,08,12.70
2014,06,11,12,09,12.70
2014,06,11,12,10,12.70
2014,06,11,12,11,12.70
2014,06,11,12,12,12.70
2014,06,11,12,13,12.70
2014,06,11,12,14,12.70
2014,06,11,12,15,12.70
2014,06,11,12,16,12.70
2014,06,11,12,17,12.70
2014,06,11,12,18,12.70
2014,06,11,12,19,12.70
2014,06,11,12,20,12.70
2014,06,11,12,21,12.70
2014,06,11,12,22,12.70
2014,06,11,12,23,12.70
2014,06,11,12,24,13.60
2014,06,11,12,25,13.60
2014,06,11,12,26,13.60
2014,06,11,12,27,13.60
2014,06,11,12,28,13.60
2014,06,11,12,29,13.60
2014,06,11,12,30,13.60
2014,06,11,12,31,13.60
2014,06,11,12,32,13.60
2014,06,11,12,33,13.60
2014,06,11,12,34,13.60
2014,06,11,12,35,13.60
2014,06,11,12,36,13.60
2014,06,11,12,37,13.60
2014,06,11,12,38,13.60
2014,06,11,12,39,13.60
2014,06,11,12,40,13.60
2014,06,11,12,41,13.60
2014,06,11,12,42,13.60
2014,06,11,12,43,13.60
2014,06,11,12,44,13.60
2014,06,11,12,45,13.60
2014,06,11,12,46,13.60
2014,06,11,12,47,13.60
2014,06,11,12,48,13.60
2014,06,11,12,49,13.60
2014,06,11,12,50,13.60
2014,06,11,12,51,13.60
2014,06,11,12,52,13.60
2014,06,11,12,53,13.60
2014,06,11,12,54,13.60
2014,06,11,12,55,13.60
2014,06,11,12,56,13.60
2014,06,11,12,57,13.60
2014,06,11,12,58,13.60
2014,06,11,12,59,13.60
2014,06,11,14,26,14.00
2014,06,11,14,27,14.00
2014,06,11,14,28,14.00
2014,06,11,14,29,14.00
2014,06,11,14,30,14.00
2014,06,11,14,31,14.00
2014,06,11,14,32,14.00
2014,06,11,14,33,14.00
2014,06,11,14,34,14.00
2014,06,11,14,35,14.00
2014,06,11,14,36,14.00
2014,06,11,14,37,14.00
2014,06,11,14,38,14.00
2014,06,11,14,39,14.00
2014,06,11,14,40,14.00
2014,06,11,14,41,14.00
2014,06,11,14,42,14.00
2014,06,11,14,43,14.00
2014,06,11,14,44,14.00
2014,06,11,14,45,14.00
2014,06,11,14,46,14.00
2014,06,11,14,47,14.00
2014,06,11,14,48,14.00
2014,06,11,14,49,14.00
2014,06,11,14,50,14.00
2014,06,11,14,51,14.00
2014,06,11,14,52,14.00
2014,06,11,14,53,14.00
2014,06,11,14,54,14.00
2014,06,11,14,55,14.00
2014,06,11,14,56,14.00
2014,06,11,14,57,14.00
2014,06,11,14,58,14.00
2014,06,11,14,59,14.00
2014,06,11,15,00,14.00
2014,06,11,15,01,14.00
2014,06,11,15,02,14.00
2014,06,11,15,03,14.00
2014,06,11,15,04,14.00
2014,06,11,15,05,14.00
2014,06,11,15,06,14.00
2014,06,11,15,07,14.00
2014,06,11,15,08,14.00
2014,06,11,15,09,14.00
2014,06,11,15,10,14.00
2014,06,11,15,11,14.00
2014,06,11,15,12,14.00
2014,06,11,15,13,14.00
2014,06,11,15,14,14.00
2014,06,11,15,15,14.00
2014,06,11,15,16,14.00
2014,06,11,15,17,14.00
2014,06,11,15,18,14.00
2014,06,11,15,19,14.00
2014,06,11,15,20,14.00
2014,06,11,15,21,14.00
2014,06,11,15,22,14.00
2014,06,11,15,23,14.00
2014,06,11,15,24,14.00
2014,06,11,15,25,14.00
2014,06,11,15,26,14.00
2014,06,11,15,27,13.30
2014,06,11,15,28,13.30
2014,06,11,15,29,13.30
2014,06,11,15,30,13.30
2014,06,11,15,31,13.30
2014,06,11,15,32,13.30
2014,06,11,15,33,13.30
2014,06,11,15,34,13.30
2014,06,11,15,35,13.30
2014,06,11,15,36,13.30
2014,06,11,15,37,13.30
2014,06,11,15,38,13.30
2014,06,11,15,39,13.30
2014,06,11,15,40,13.30
2014,06,11,15,41,13.30
2014,06,11,15,42,13.30
2014,06,11,15,43,13.30
2014,06,11,15,44,13.30
2014,06,11,15,45,13.30
2014,06,11,15,46,13.30
2014,06,11,15,47,13.30
2014,06,11,15,48,13.30
2014,06,11,15,49,13.30
2014,06,11,15,50,13.30
2014,06,11,15,51,13.30
2014,06,11,15,52,13.30
2014,06,11,15,53,13.30
2014,06,11,15,54,13.30
2014,06,11,15,55,13.30
2014,06,11,15,56,13.30
2014,06,11,15,57,13.30
2014,06,11,15,58,13.30
2014,06,11,15,59,13.30
2014,06,11,16,28,13.80
2014,06,11,16,29,13.80
2014,06,11,16,30,13.80
2014,06,11,16,31,13.80
2014,06,11,16,32,13.80
2014,06,11,16,33,13.80
2014,06,11,16,34,13.80
2014,06,11,16,35,13.80
2014,06,11,16,36,13.80
2014,06,11,16,37,13.80
2014,06,11,16,38,13.80
2014,06,11,16,39,13.80
2014,06,11,16,40,13.80
2014,06,11,16,41,13.80
2014,06,11,16,42,13.80
2014,06,11,16,43,13.80
2014,06,11,16,44,13.80
2014,06,11,16,45,13.80
2014,06,11,16,46,13.80
2014,06,11,16,47,13.80
2014,06,11,16,48,13.80
2014,06,11,16,49,13.80
2014,06,11,16,50,13.80
2014,06,11,16,51,13.80
2014,06,11,16,52,13.80
2014,06,11,16,53,13.80
2014,06,11,16,54,13.80
2014,06,11,16,55,13.80
2014,06,11,16,56,13.80
2014,06,11,16,57,13.80
2014,06,11,16,58,13.80
2014,06,11,16,59,13.80
2014,06,11,17,28,13.00
2014,06,11,17,29,13.00
2014,06,11,17,30,13.00
2014,06,11,17,31,13.00
2014,06,11,17,32,13.00
2014,06,11,17,33,13.00
2014,06,11,17,34,13.00
2014,06,11,17,35,13.00
2014,06,11,17,36,13.00
2014,06,11,17,37,13.00
2014,06,11,17,38,13.00
2014,06,11,17,39,13.00
2014,06,11,17,40,13.00
2014,06,11,17,41,13.00
2014,06,11,17,42,13.00
2014,06,11,17,43,13.00
2014,06,11,17,44,13.00
2014,06,11,17,45,13.00
2014,06,11,17,46,13.00
2014,06,11,17,47,13.00
2014,06,11,17,48,13.00
2014,06,11,17,49,13.00
2014,06,11,17,50,13.00
2014,06,11,17,51,13.00
2014,06,11,17,52,13.00
2014,06,11,17,53,13.00
2014,06,11,17,54,13.00
2014,06,11,17,55,13.00
2014,06,11,17,56,13.00
2014,06,11,17,57,13.00
2014,06,11,17,58,13.00
2014,06,11,17,59,13.00
2014,06,11,18,00,13.00
2014,06,11,18,01,13.00
2014,06,11,18,02,13.00
2014,06,11,18,03,13.00
2014,06,11,18,04,13.00
2014,06,11,18,05,13.00
2014,06,11,18,06,13.00
2014,06,11,18,07,13.00
2014,06,11,18,08,13.00
2014,06,11,18,09,13.00
2014,06,11,18,10,13.00
2014,06,11,18,11,13.00
2014,06,11,18,12,13.00
2014,06,11,18,13,13.00
2014,06,11,18,14,13.00
2014,06,11,18,15,13.00
2014,06,11,18,16,13.00
2014,06,11,18,17,13.00
2014,06,11,18,18,13.00
2014,06,11,18,19,13.00
2014,06,11,18,20,13.00
2014,06,11,18,21,13.00
2014,06,11,18,22,13.00
2014,06,11,18,23,13.00
2014,06,11,18,24,13.00
2014,06,11,18,25,13.00
2014,06,11,18,26,13.00
2014,06,11,18,27,13.00
2014,06,11,18,28,13.00
2014,06,11,18,29,13.00
2014,06,11,18,30,13.00
2014,06,11,18,31,13.00
2014,06,11,18,32,13.00
2014,06,11,18,33,13.00
2014,06,11,18,34,13.00
2014,06,11,18,35,13.00
2014,06,11,18,36,13.00
2014,06,11,18,37,13.00
2014,06,11,18,38,13.00
2014,06,11,18,39,13.00
2014,06,11,18,40,13.00
2014,06,11,18,41,13.00
2014,06,11,18,42,13.00
2014,06,11,18,43,13.00
2014,06,11,18,44,13.00
2014,06,11,18,45,13.00
2014,06,11,18,46,13.00
2014,06,11,18,47,13.00
2014,06,11,18,48,13.00
2014,06,11,18,49,13.00
2014,06,11,18,50,13.00
2014,06,11,18,51,13.00
2014,06,11,18,52,13.00
2014,06,11,18,53,13.00
2014,06,11,18,54,13.00
2014,06,11,18,55,13.00
2014,06,11,18,56,13.00
2014,06,11,18,57,13.00
2014,06,11,18,58,13.00
2014,06,11,18,59,13.00
2014,06,11,19,30,12.70
2014,06,11,19,31,12.70
2014,06,11,19,32,12.70
2014,06,11,19,33,12.70
2014,06,11,19,34,12.70
2014,06,11,19,35,12.70
2014,06,11,19,36,12.70
2014,06,11,19,37,12.70
2014,06,11,19,38,12.70
2014,06,11,19,39,12.70
2014,06,11,19,40,12.70
2014,06,11,19,41,12.70
2014,06,11,19,42,12.70
2014,06,11,19,43,12.70
2014,06,11,19,44,12.70
2014,06,11,19,45,12.70
2014,06,11,19,46,12.70
2014,06,11,19,47,12.70
2014,06,11,19,48,12.70
2014,06,11,19,49,12.70
2014,06,11,19,50,12.70
2014,06,11,19,51,12.70
2014,06,11,19,52,12.70
2014,06,11,19,53,12.70
2014,06,11,19,54,12.70
2014,06,11,19,55,12.70
2014,06,11,19,56,12.70
2014,06,11,19,57,12.70
2014,06,11,19,58,12.70
2014,06,11,19,59,12.70
2014,06,11,20,30,12.50
2014,06,11,20,31,12.50
2014,06,11,20,32,12.50
2014,06,11,20,33,12.50
2014,06,11,20,34,12.50
2014,06,11,20,35,12.50
2014,06,11,20,36,12.50
2014,06,11,20,37,12.50
2014,06,11,20,38,12.50
2014,06,11,20,39,12.50
2014,06,11,20,40,12.50
2014,06,11,20,41,12.50
2014,06,11,20,42,12.50
2014,06,11,20,43,12.50
2014,06,11,20,44,12.50
2014,06,11,20,45,12.50
2014,06,11,20,46,12.50
2014,06,11,20,47,12.50
2014,06,11,20,48,12.50
2014,06,11,20,49,12.50
2014,06,11,20,50,12.50
2014,06,11,20,51,12.50
2014,06,11,20,52,12.50
2014,06,11,20,53,12.50
2014,06,11,20,54,12.50
2014,06,11,20,55,12.50
2014,06,11,20,56,12.50
2014,06,11,20,57,12.50
2014,06,11,20,58,12.50
2014,06,11,20,59,12.50
2014,06,11,21,00,12.50
2014,06,11,21,01,12.50
2014,06,11,21,02,12.50
2014,06,11,21,03,12.50
2014,06,11,21,04,12.50
2014,06,11,21,05,12.50
2014,06,11,21,06,12.50
2014,06,11,21,07,12.50
2014,06,11,21,08,12.50
2014,06,11,21,09,12.50
2014,06,11,21,10,12.50
2014,06,11,21,11,12.50
2014,06,11,21,12,12.50
2014,06,11,21,13,12.50
2014,06,11,21,14,12.50
2014,06,11,21,15,12.50
2014,06,11,21,16,12.50
2014,06,11,21,17,12.50
2014,06,11,21,18,12.50
2014,06,11,21,19,12.50
2014,06,11,21,20,12.50
2014,06,11,21,21,12.50
2014,06,11,21,22,12.50
2014,06,11,21,23,12.50
2014,06,11,21,24,12.50
2014,06,11,21,25,12.50
2014,06,11,21,26,12.50
2014,06,11,21,27,12.50
2014,06,11,21,28,12.50
2014,06,11,21,29,12.50
2014,06,11,21,30,12.50
2014,06,11,21,31,12.30
2014,06,11,21,32,12.30
2014,06,11,21,33,12.30
2014,06,11,21,34,12.30
2014,06,11,21,35,12.30
2014,06,11,21,36,12.30
2014,06,11,21,37,12.30
2014,06,11,21,38,12.30
2014,06,11,21,39,12.30
2014,06,11,21,40,12.30
2014,06,11,21,41,12.30
2014,06,11,21,42,12.30
2014,06,11,21,43,12.30
2014,06,11,21,44,12.30
2014,06,11,21,45,12.30
2014,06,11,21,46,12.30
2014,06,11,21,47,12.30
2014,06,11,21,48,12.30
2014,06,11,21,49,12.30
2014,06,11,21,50,12.30
2014,06,11,21,51,12.30
2014,06,11,21,52,12.30
2014,06,11,21,53,12.30
2014,06,11,21,54,12.30
2014,06,11,21,55,12.30
2014,06,11,21,56,12.30
2014,06,11,21,57,12.30
2014,06,11,21,58,12.30
2014,06,11,21,59,12.30
2014,06,11,23,33,12.00
2014,06,11,23,34,12.00
2014,06,11,23,35,12.00